Location: Newark
(41.8083°N, 72.2500°W)
Time: 11:11:12
(UTC+00:00)

Explorer 11/Cluster Stage 4 - Pass Details

Date: 10 December 2021
Orbit: 467 x 1255 km, 28.8° (Epoch: 23 January)

Event Time Altitude Azimuth Distance (km) Brightness Sun altitude
Rises 07:18:34 0° 249° (WSW) 3,167 - -52.4°
Reaches altitude 10° 07:21:26 10° 233° (SW) 2,385 - -51.8°
Maximum altitude 07:25:34 20° 187° (S) 1,948 - -51.1°
Drops below altitude 10° 07:30:18 10° 142° (SE) 2,794 - -50.3°
Exits shadow 07:32:32 - 132° (SE) 3,436 10.1 -49.9°
Sets 07:34:00 0° 128° (SE) 3,891 10.5 -49.6°
